#datint,netname,site,siteID,timestamp,IntT,BattV,AirT2,AirT,AirT_Avg,AirT_Max,AirT_Min,RH_Avg,RH_Max,RH_Min,EA_Avg,Td_Avg,Td_Max,Td_Min,WindS_Smp,WindS_Avg,WindD_Avg,WindD_SD,WindS_Max,ETo,ETr,SoilT4,SoilT8,SoilVWC8,SolarW_Avg,wetstate_Avg,wetT_Avg,Precip_accum,Precip_WPG,Precip_TB
15min,AgWx,beryljct,423,02AUG2018:01:00:00,78.4,13.04,75.6,76.1,75.5,76.4,74.6,41,44,37,1.243,50.0,51.2,48.4,4.056,4.6,207,9.9,8.4,0.00041,0.00062,76.2,77.7,17,0,0,74.3,15.96,0.00,0.00
15min,AgWx,beryljct,423,02AUG2018:01:15:00,77.6,13.04,76.0,77.4,75.8,78.0,73.1,41,50,35,1.182,50.4,54.5,48.1,3.771,3.5,137,66,6.8,0.00026,0.00042,76.0,77.7,17,0,0,74.6,15.96,0.00,0.00
15min,AgWx,beryljct,423,02AUG2018:01:30:00,76.7,13.04,72.2,71.7,72.9,77.4,71.4,52,56,37,1.425,54.0,55.0,49.2,6.204,4.5,142,9.1,6.2,0.00028,0.00044,75.9,77.6,17,0,0,72.5,15.96,0.00,0.00
15min,AgWx,beryljct,423,02AUG2018:01:45:00,75.6,13.03,73.5,74.0,73.2,74.0,71.8,49,53,47,1.339,53.1,53.9,52.4,3.858,5.6,164,7.5,7.7,0.00041,0.00060,75.7,77.5,17,0,0,72.4,15.96,0.00,0.00
15min,AgWx,beryljct,423,02AUG2018:02:00:00,75.1,13.03,75.0,74.1,74.9,75.9,74.0,44,49,40,1.339,51.5,54.4,49.5,3.135,3.3,163,8.3,4.6,0.00021,0.00036,75.6,77.4,17,0,0,73.7,15.97,0.00,0.00
15min,AgWx,beryljct,423,02AUG2018:02:15:00,75.0,13.02,75.2,74.9,75.2,76.2,74.1,44,49,41,1.452,51.8,54.6,50.8,3.573,4.2,183,23,5.9,0.00033,0.00051,75.5,77.3,17,0,0,74.2,15.97,0.00,0.00
15min,AgWx,beryljct,423,02AUG2018:02:30:00,74.9,13.01,72.9,74.0,73.0,74.7,72.3,51,56,47,1.354,53.9,56.3,52.7,7.826,6.9,53,46,12.1,0.00048,0.00068,75.4,77.2,17,0,0,72.9,15.97,0.00,0.00
15min,AgWx,beryljct,423,02AUG2018:02:45:00,74.7,13,72.7,71.5,73.0,74.7,71.5,52,58,46,1.521,54.4,55.9,52.3,2.981,5.9,51,12,10.2,0.00041,0.00059,75.3,77.1,17,0,0,72.7,15.97,0.00,0.00
15min,AgWx,beryljct,423,02AUG2018:03:00:00,74.0,13.01,70.2,69.2,70.4,71.4,69.2,61,67,58,1.637,56.2,57.9,55.8,1.469,2.4,64,9.5,5.4,-0.00001,0.00003,75.1,77.1,17,0,0,69.7,15.97,0.00,0.00
15min,AgWx,beryljct,423,02AUG2018:03:15:00,73.0,12.98,69.5,70.0,69.4,70.4,68.5,64,70,59,1.536,56.7,58.8,55.3,2.148,1.0,56,12,2.4,-0.00019,-0.00027,75.0,77.0,17,0,0,68.2,15.97,0.00,0.00
15min,AgWx,beryljct,423,02AUG2018:03:30:00,72.1,13,69.6,69.9,69.6,70.2,68.6,63,67,60,1.506,56.2,57.2,55.5,0,1.3,44,0.0,2.9,-0.00015,-0.00019,74.9,76.9,17,0,0,68.1,15.97,0.00,0.00
15min,AgWx,beryljct,423,02AUG2018:03:45:00,71.4,12.98,69.0,69.2,69.0,70.0,67.3,64,71,60,1.523,56.2,57.8,55.4,1.14,0.3,43,0.0,1.5,-0.00028,-0.00044,74.7,76.8,17,0,0,67.5,15.97,0.00,0.00
15min,AgWx,beryljct,423,02AUG2018:04:00:00,70.8,12.97,67.9,67.3,68.1,69.7,67.0,68,73,60,1.551,57.2,58.8,55.4,3.902,1.4,6.2,38,3.9,-0.00015,-0.00019,74.6,76.7,17,0,0,67.4,15.97,0.00,0.00
15min,AgWx,beryljct,423,02AUG2018:04:15:00,70.1,12.97,67.7,67.7,67.6,68.7,66.4,66,71,61,1.479,55.8,57.1,54.8,1.951,3.3,302,3.3,4.8,0.00004,0.00009,74.5,76.7,17,0,0,66.5,15.97,0.00,0.00
15min,AgWx,beryljct,423,02AUG2018:04:30:00,69.4,12.97,67.8,67.1,67.8,69.0,66.9,62,68,57,1.448,54.5,56.2,53.3,2.85,2.9,303,6.6,4.2,0.00002,0.00007,74.4,76.6,17,0,0,65.6,15.97,0.00,0.00
15min,AgWx,beryljct,423,02AUG2018:04:45:00,68.7,12.96,66.2,65.2,66.4,67.5,65.2,66,70,61,1.462,54.6,55.6,53.6,5.064,4.0,302,6.5,5.9,0.00009,0.00015,74.3,76.5,17,0,0,65.3,15.98,0.00,0.00
15min,AgWx,beryljct,423,02AUG2018:05:00:00,68.0,12.96,66.2,66.0,66.0,66.8,65.0,65,69,62,1.435,54.0,54.8,53.3,5.371,4.5,309,16,6.0,0.00012,0.00020,74.1,76.4,17,0,0,64.8,15.98,0.00,0.00
15min,AgWx,beryljct,423,02AUG2018:05:15:00,67.6,12.95,65.9,66.2,65.8,66.3,65.2,66,68,64,1.415,54.2,54.5,53.8,6.072,5.7,307,15,7.2,0.00019,0.00028,74.0,76.4,17,0,0,64.5,15.98,0.00,0.00
15min,AgWx,beryljct,423,02AUG2018:05:30:00,67.1,12.94,66.3,66.4,66.2,67.0,65.1,66,69,62,1.449,54.4,54.9,53.6,3.332,3.5,296,6.9,5.8,0.00005,0.00011,73.9,76.3,17,0,0,64.2,15.97,0.00,0.00
15min,AgWx,beryljct,423,02AUG2018:05:45:00,66.6,12.94,65.0,65.6,65.0,66.6,63.7,69,73,65,1.433,54.7,55.2,54.1,1.008,1.7,309,9.1,4.7,-0.00012,-0.00016,73.7,76.2,17,0,0,62.8,15.98,0.00,0.00
15min,AgWx,beryljct,423,02AUG2018:06:00:00,66.0,12.92,65.6,65.7,65.5,66.3,64.4,66,71,64,1.411,54.1,54.8,53.2,1.008,0.6,319,20,2.1,0.00008,0.00013,73.6,76.1,17,0,0,62.1,15.97,0.00,0.00
15min,AgWx,beryljct,423,02AUG2018:06:15:00,65.5,12.92,63.7,62.7,64.0,66.0,62.4,72,77,65,1.491,54.6,55.4,53.7,4.976,3.7,325,20,5.8,0.00031,0.00053,73.4,76.0,17,0,0,62.1,15.98,0.00,0.00
15min,AgWx,beryljct,423,02AUG2018:06:30:00,65.0,12.93,63.6,63.0,63.5,63.9,62.9,76,78,74,1.524,55.7,56.2,55.2,3.486,4.9,312,7.8,6.3,0.00034,0.00059,73.2,75.5,16,0,0,61.9,15.98,0.00,0.00
15min,AgWx,beryljct,423,02AUG2018:06:45:00,64.7,12.92,63.0,63.1,62.8,63.4,62.5,78,79,76,1.543,55.9,56.4,55.7,4.647,4.3,317,7.8,5.9,0.00028,0.00048,73.1,75.9,17,2,0,61.3,15.98,0.00,0.00
15min,AgWx,beryljct,423,02AUG2018:07:00:00,64.4,12.91,63.2,63.3,63.0,63.4,62.6,79,81,78,1.556,56.4,56.6,56.2,4.077,4.2,320,6.8,6.3,0.00030,0.00049,72.9,75.8,17,8,0,61.8,15.98,0.00,0.00
15min,AgWx,beryljct,423,02AUG2018:07:15:00,64.3,12.93,63.1,63.7,62.9,63.7,62.4,80,82,78,1.577,56.6,56.9,56.4,5.371,5.4,309,9.2,7.3,0.00042,0.00065,72.8,75.7,17,21,0,62.5,15.98,0.00,0.00
15min,AgWx,beryljct,423,02AUG2018:07:30:00,64.4,12.93,64.1,63.8,64.0,64.3,63.6,77,79,76,1.581,56.8,57.0,56.6,4.998,5.8,303,10,8.3,0.00054,0.00082,72.6,75.6,17,30,0,64.0,15.98,0.00,0.00
15min,AgWx,beryljct,423,02AUG2018:07:45:00,64.8,12.96,64.4,64.9,64.2,64.9,63.8,77,78,75,1.600,56.9,57.5,56.5,2.959,4.3,303,6.0,6.3,0.00080,0.00105,72.4,75.5,17,85,0,66.9,15.98,0.00,0.00
15min,AgWx,beryljct,423,02AUG2018:08:00:00,66.1,13,66.4,66.9,66.1,66.9,64.9,73,76,69,1.640,57.2,58.0,56.3,0.789,2.7,304,8.4,4.7,0.00125,0.00149,72.3,75.4,17,182,0,79.1,15.98,0.00,0.00
15min,AgWx,beryljct,423,02AUG2018:08:15:00,67.5,13.01,66.9,67.0,66.8,67.2,66.5,72,76,68,1.555,57.6,58.8,56.2,1.688,1.9,313,1.2,2.6,0.00101,0.00119,72.2,75.3,17,131,0,78.1,15.97,0.00,0.00
15min,AgWx,beryljct,423,02AUG2018:08:30:00,68.4,13.03,67.6,67.3,67.4,67.8,67.0,70,76,66,1.709,57.4,59.5,55.6,1.096,1.6,313,0.8,2.5,0.00113,0.00131,72.1,75.3,17,149,0,77.0,15.97,0.00,0.00
15min,AgWx,beryljct,423,02AUG2018:08:45:00,69.0,13.07,68.1,68.6,67.9,68.6,67.3,71,77,67,1.634,58.2,60.0,56.8,0,0.7,313,0.7,2.1,0.00103,0.00114,72.0,75.2,17,135,0,76.3,15.97,0.00,0.00
15min,AgWx,beryljct,423,02AUG2018:09:00:00,69.5,13.13,68.0,67.9,68.0,68.6,67.6,74,78,68,1.798,59.6,60.8,57.6,1.403,1.3,303,41,2.4,0.00123,0.00139,71.9,75.1,16,165,0,77.7,15.97,0.00,0.00
15min,AgWx,beryljct,423,02AUG2018:09:15:00,70.0,13.27,67.9,68.8,67.8,68.8,67.3,75,78,72,1.724,59.6,60.7,58.2,4.669,3.7,146,12,5.5,0.00185,0.00216,71.9,75.0,16,262,0,80.3,15.97,0.00,0.00
15min,AgWx,beryljct,423,02AUG2018:09:30:00,72.0,13.5,70.2,71.1,70.0,71.1,68.8,67,73,61,1.715,58.4,60.1,56.6,4.056,4.4,151,9.7,5.6,0.00338,0.00390,71.9,74.9,16,507,0,95.5,15.97,0.00,0.00
15min,AgWx,beryljct,423,02AUG2018:09:45:00,74.5,13.56,71.5,71.5,71.5,72.1,70.9,63,69,59,1.674,58.1,60.7,56.5,4.669,4.3,159,8.9,6.1,0.00346,0.00402,72.0,74.8,16,494,0,98.4,15.97,0.00,0.00
15min,AgWx,beryljct,423,02AUG2018:10:00:00,76.1,14.02,72.9,73.9,72.7,74.0,71.5,60,67,55,1.680,58.1,60.1,56.4,3.31,4.1,161,10,6.0,0.00411,0.00473,72.0,74.7,16,596,0,100.1,15.96,0.00,0.00
15min,AgWx,beryljct,423,02AUG2018:10:15:00,77.6,13.61,73.6,73.4,73.7,73.9,73.3,58,61,55,1.591,58.0,59.5,56.4,4.297,3.8,157,8.7,5.6,0.00297,0.00352,72.2,74.7,16,379,0,96.3,15.96,0.00,0.00
15min,AgWx,beryljct,423,02AUG2018:10:30:00,77.9,14.03,74.2,75.2,74.1,75.2,73.5,58,63,53,1.626,58.2,60.4,55.7,3.771,3.9,157,8.1,5.8,0.00378,0.00440,72.3,74.6,16,520,0,95.4,15.96,0.00,0.00
15min,AgWx,beryljct,423,02AUG2018:10:45:00,79.9,13.97,76.2,76.9,76.1,77.5,75.1,55,59,50,1.577,58.6,61.0,56.5,3.025,3.2,161,8.9,5.3,0.00488,0.00553,72.5,74.5,16,678,0,109.2,15.95,0.00,0.00
15min,AgWx,beryljct,423,02AUG2018:11:00:00,81.3,13.89,76.9,78.0,77.0,78.1,76.4,53,58,49,1.687,58.7,61.2,56.7,3.727,2.8,145,8.4,4.4,0.00465,0.00526,72.8,74.5,16,641,0,108.1,15.95,0.00,0.00
15min,AgWx,beryljct,423,02AUG2018:11:15:00,83.2,13.87,78.8,79.2,78.9,79.8,77.9,48,55,45,1.579,57.8,60.6,56.2,3.814,2.8,146,12,5.4,0.00566,0.00638,73.1,74.5,16,776,0,116.3,15.95,0.00,0.00
15min,AgWx,beryljct,423,02AUG2018:11:30:00,84.9,13.83,79.6,80.2,79.8,80.4,79.2,47,52,40,1.558,57.7,61.4,53.2,4.406,2.8,100,22,5.9,0.00591,0.00666,73.4,74.4,16,806,0,116.7,15.95,0.00,0.00
15min,AgWx,beryljct,423,02AUG2018:11:45:00,85.9,13.9,80.5,81.1,80.6,81.1,80.1,47,52,43,1.722,58.7,61.7,56.1,8.29,5.4,90,12,8.3,0.00625,0.00731,73.9,74.4,16,824,0,110.3,15.95,0.00,0.00
15min,AgWx,beryljct,423,02AUG2018:12:00:00,86.7,13.86,82.0,82.5,82.1,82.5,81.2,46,53,40,1.576,59.2,63.1,55.7,5.152,4.6,111,20,7.6,0.00653,0.00756,74.4,74.4,16,859,0,112.3,15.95,0.00,0.00
15min,AgWx,beryljct,423,02AUG2018:12:15:00,87.6,13.8,83.0,84.2,83.1,84.2,82.5,44,50,39,1.622,58.6,63.3,55.1,3.946,4.5,80,16,7.4,0.00688,0.00795,74.9,74.5,16,903,0,114.3,15.95,0.00,0.00
15min,AgWx,beryljct,423,02AUG2018:12:30:00,89.0,13.37,84.9,85.8,85.1,85.8,84.1,42,52,36,1.680,59.4,65.4,55.6,8.29,5.9,112,30,11.0,0.00766,0.00898,75.5,74.5,16,975,0,115.1,15.94,0.00,0.00
15min,AgWx,beryljct,423,02AUG2018:12:45:00,89.7,13.35,85.6,86.0,85.7,87.2,84.7,37,44,32,1.403,56.4,62.0,53.2,3.946,5.9,167,52,13.9,0.00545,0.00671,76.2,74.6,16,615,0,105.8,15.94,0.00,0.00
15min,AgWx,beryljct,423,02AUG2018:13:00:00,89.7,13.37,85.1,84.9,85.4,86.5,84.6,37,43,31,1.727,56.0,61.0,52.7,1.841,4.9,29,46,11.3,0.00425,0.00530,76.9,74.6,16,450,0,99.7,15.94,0.00,0.00
15min,AgWx,beryljct,423,02AUG2018:13:15:00,89.1,13.41,84.1,84.0,84.3,86.1,82.8,38,53,28,1.553,56.0,64.5,49.0,4.626,5.4,245,43,10.9,0.00313,0.00414,77.5,74.7,16,270,0,94.4,15.95,0.00,0.00
15min,AgWx,beryljct,423,02AUG2018:13:30:00,87.1,13.44,80.0,77.9,80.7,83.8,77.8,44,51,34,1.632,56.4,58.9,52.1,16.16,11.3,273,24,20.0,0.00303,0.00456,78.1,74.8,16,167,0,85.1,15.95,0.00,0.00
15min,AgWx,beryljct,423,02AUG2018:13:45:00,83.4,13.38,74.1,73.2,74.8,77.9,72.8,55,61,50,1.486,57.8,58.9,55.2,12.87,13.8,304,14,20.5,0.00215,0.00343,78.4,75.0,16,83,0,76.0,15.95,0.01,0.00
15min,AgWx,beryljct,423,02AUG2018:14:00:00,79.3,13.19,72.5,70.6,72.8,74.0,70.6,58,66,53,1.677,57.2,59.0,55.4,11.57,12.3,310,8.7,16.7,0.00182,0.00289,78.7,75.1,16,72,19,71.1,15.97,0.02,0.00
15min,AgWx,beryljct,423,02AUG2018:14:15:00,75.1,13.34,69.4,70.3,69.5,70.6,68.6,71,76,65,1.721,59.7,60.9,57.5,13.59,10.2,293,11,16.7,0.00115,0.00177,78.8,75.3,16,62,11,68.0,15.98,0.01,0.01
15min,AgWx,beryljct,423,02AUG2018:14:30:00,72.8,13.28,69.3,68.9,69.5,70.3,68.7,73,78,67,1.855,60.3,61.7,59.0,8.7,9.1,302,8.4,12.4,0.00117,0.00171,78.9,75.5,16,81,31,68.9,16.02,0.04,0.03
15min,AgWx,beryljct,423,02AUG2018:14:45:00,71.5,13.74,70.3,71.1,70.1,71.2,68.9,73,78,66,1.832,60.9,62.1,59.1,8.07,9.2,312,9.2,17.4,0.00161,0.00219,78.8,75.6,16,157,17,71.1,16.04,0.02,0.02
15min,AgWx,beryljct,423,02AUG2018:15:00:00,71.9,13.44,72.2,72.4,72.1,72.6,71.0,64,71,60,1.628,59.4,61.4,57.8,12.52,10.3,299,12,15.7,0.00213,0.00296,78.7,75.8,16,186,6,73.6,16.05,0.00,0.00
15min,AgWx,beryljct,423,02AUG2018:15:15:00,71.9,13.39,71.7,71.3,71.8,72.6,70.5,63,70,58,1.727,58.3,60.5,56.7,9.56,9.5,307,26,15.8,0.00177,0.00257,78.4,75.9,16,127,0,72.7,16.05,0.00,0.00
15min,AgWx,beryljct,423,02AUG2018:15:30:00,71.7,13.73,72.5,73.0,72.3,73.2,71.4,63,68,60,1.697,59.1,61.2,57.9,11.73,8.6,297,27,13.4,0.00219,0.00295,78.3,76.0,16,215,41,72.3,16.07,0.02,0.02
15min,AgWx,beryljct,423,02AUG2018:15:45:00,72.1,13.64,73.4,73.9,73.2,73.9,72.7,68,73,60,1.873,62.1,63.8,58.4,4.165,5.7,307,31,11.9,0.00216,0.00269,78.1,76.1,16,250,0,78.2,16.07,0.00,0.00
15min,AgWx,beryljct,423,02AUG2018:16:00:00,73.0,13.7,75.2,78.0,74.9,78.0,73.7,64,74,51,1.717,62.0,65.5,58.5,5.656,4.1,124,63,8.5,0.00335,0.00390,77.9,76.2,16,466,2,78.9,16.07,0.00,0.00
15min,AgWx,beryljct,423,02AUG2018:16:15:00,74.7,13.64,76.0,73.7,76.4,79.1,73.4,56,65,42,1.770,59.5,61.5,54.2,5.13,7.9,127,19,12.2,0.00298,0.00391,77.7,76.3,16,321,0,82.4,16.07,0.00,0.00
15min,AgWx,beryljct,423,02AUG2018:16:30:00,76.4,13.55,75.9,76.2,75.7,76.9,73.7,61,67,55,1.742,61.3,64.4,59.0,2.609,5.2,138,24,8.9,0.00373,0.00442,77.6,76.4,16,527,0,88.2,16.07,0.00,0.00
15min,AgWx,beryljct,423,02AUG2018:16:45:00,78.7,13.49,77.5,78.6,77.4,78.6,76.1,55,63,48,1.799,60.2,63.9,57.3,0,1.5,103,7.7,5.2,0.00446,0.00491,77.6,76.4,16,650,0,98.3,16.07,0.00,0.00
15min,AgWx,beryljct,423,02AUG2018:17:00:00,80.8,13.48,77.8,77.8,78.0,78.7,77.5,57,63,52,2.001,61.4,64.1,59.0,0.636,2.0,125,17,5.8,0.00212,0.00246,77.6,76.4,16,276,0,93.8,16.07,0.00,0.00
15min,AgWx,beryljct,423,02AUG2018:17:15:00,80.5,13.33,76.9,76.0,77.1,77.8,76.0,62,68,56,1.932,63.0,65.8,60.3,9.16,6.7,2.9,66,13.3,0.00135,0.00199,77.7,76.4,16,80,0,81.1,16.07,0.00,0.00
15min,AgWx,beryljct,423,02AUG2018:17:30:00,79.3,13.36,75.5,75.1,75.7,76.2,75.0,61,65,58,1.760,61.5,63.5,59.7,10.37,7.7,16,18,10.4,0.00142,0.00213,77.9,76.5,16,77,0,77.0,16.07,0.00,0.00
15min,AgWx,beryljct,423,02AUG2018:17:45:00,78.1,13.24,74.5,74.3,74.7,75.4,74.1,57,59,55,1.679,58.5,60.0,57.5,4.911,8.0,47,8.7,13.0,0.00138,0.00219,77.9,76.5,16,53,0,75.9,16.07,0.00,0.00
15min,AgWx,beryljct,423,02AUG2018:18:00:00,76.4,13.18,72.8,71.4,73.2,74.4,71.4,62,67,57,1.748,59.4,60.6,58.3,8.18,6.5,297,50,12.6,0.00098,0.00156,77.9,76.5,16,33,33,72.7,16.10,0.04,0.04
15min,AgWx,beryljct,423,02AUG2018:18:15:00,73.1,13.22,70.8,70.7,70.8,71.2,70.1,64,68,60,1.589,57.8,59.6,56.4,11.82,12.1,264,17,21.3,0.00136,0.00224,77.8,76.5,16,36,17,67.6,16.13,0.03,0.01
15min,AgWx,beryljct,423,02AUG2018:18:30:00,71.1,13.22,69.1,68.2,69.4,70.8,68.2,68,72,63,1.698,58.5,59.3,57.4,11.07,14.0,325,14,17.8,0.00143,0.00228,77.7,76.6,16,83,9,65.4,16.13,0.00,0.00
15min,AgWx,beryljct,423,02AUG2018:18:45:00,70.2,13.4,69.5,69.0,69.3,70.0,68.1,69,74,65,1.774,58.8,60.5,57.4,7.914,10.1,14,16,17.0,0.00184,0.00253,77.4,76.6,16,263,8,69.7,16.13,0.00,0.00
15min,AgWx,beryljct,423,02AUG2018:19:00:00,70.8,13.33,69.6,70.0,69.4,70.0,69.0,71,73,68,1.723,59.5,60.1,58.9,8.46,8.2,47,14,10.7,0.00129,0.00183,77.2,76.6,16,190,0,73.4,16.13,0.00,0.00
15min,AgWx,beryljct,423,02AUG2018:19:15:00,71.9,13.47,70.6,71.3,70.5,71.3,69.9,68,71,65,1.718,59.5,61.0,58.6,6.599,7.1,80,11,9.5,0.00188,0.00245,77.0,76.6,16,285,0,75.0,16.13,0.00,0.00
15min,AgWx,beryljct,423,02AUG2018:19:30:00,72.9,13.41,70.8,70.3,70.9,71.4,70.3,68,72,64,1.810,59.7,60.8,58.6,7.081,8.5,107,14,11.7,0.00169,0.00234,76.8,76.6,16,235,0,75.1,16.13,0.00,0.00
15min,AgWx,beryljct,423,02AUG2018:19:45:00,72.6,13.28,69.7,69.4,69.8,70.4,69.4,72,74,71,1.803,60.5,61.2,60.0,7.497,7.6,130,7.9,13.9,0.00051,0.00096,76.7,76.6,16,69,0,70.8,16.13,0.00,0.00
15min,AgWx,beryljct,423,02AUG2018:20:00:00,71.8,13.22,69.3,69.0,69.3,69.7,69.0,74,76,72,1.809,60.6,61.2,60.1,6.007,6.7,148,6.8,8.9,0.00045,0.00059,76.6,76.6,16,42,0,69.5,16.13,0.00,0.00
15min,AgWx,beryljct,423,02AUG2018:20:15:00,71.1,13.19,68.6,68.5,68.6,69.0,68.4,76,77,74,1.804,60.9,61.2,60.5,4.341,5.2,159,6.8,6.9,0.00041,0.00055,76.4,76.6,16,56,0,68.9,16.13,0.00,0.00
15min,AgWx,beryljct,423,02AUG2018:20:30:00,70.7,13.17,68.5,68.6,68.5,68.7,68.4,77,80,76,1.883,61.2,62.1,60.6,3.727,3.7,166,12,4.6,0.00037,0.00052,76.2,76.5,16,57,0,69.2,16.13,0.00,0.00
15min,AgWx,beryljct,423,02AUG2018:20:45:00,70.3,13.13,69.1,69.3,69.0,69.3,68.6,76,79,72,1.766,61.0,61.7,60.0,3.749,3.1,187,12,4.9,0.00026,0.00037,76.1,76.5,16,20,0,68.5,16.13,0.00,0.00
15min,AgWx,beryljct,423,02AUG2018:21:00:00,70.1,13.1,69.6,69.8,69.5,69.9,69.2,71,74,68,1.696,59.8,60.6,58.8,5.349,4.1,196,7.5,6.2,0.00028,0.00041,75.9,76.5,16,1,0,68.4,16.13,0.00,0.00
15min,AgWx,beryljct,423,02AUG2018:21:15:00,70.1,13.1,69.6,69.0,69.7,70.0,69.0,68,70,66,1.675,58.5,59.1,58.2,0,2.2,212,4.4,6.0,0.00020,0.00031,75.7,76.4,16,0,0,68.2,16.13,0.00,0.00
15min,AgWx,beryljct,423,02AUG2018:21:30:00,69.8,13.1,69.4,69.1,69.4,70.3,68.8,69,72,65,1.757,58.6,59.9,57.6,4.165,1.2,237,16,6.4,0.00011,0.00018,75.5,76.4,16,0,0,67.7,16.14,0.00,0.00
15min,AgWx,beryljct,423,02AUG2018:21:45:00,69.7,13.08,68.3,68.4,68.3,69.0,68.0,75,76,73,1.783,60.1,60.5,59.8,5.086,5.3,259,24,8.0,0.00028,0.00039,75.4,76.3,16,0,0,67.8,16.13,0.00,0.00
15min,AgWx,beryljct,423,02AUG2018:22:00:00,69.7,13.08,68.5,68.7,68.4,68.9,68.2,75,76,72,1.755,60.1,60.4,59.4,6.467,6.6,270,9.1,10.5,0.00033,0.00044,75.2,76.3,16,0,0,68.2,16.14,0.00,0.00
15min,AgWx,beryljct,423,02AUG2018:22:15:00,69.8,13.07,69.3,69.9,69.0,69.9,68.5,70,74,65,1.619,59.0,59.9,57.6,12.3,5.3,243,26,12.3,0.00034,0.00047,75.0,75.7,16,0,0,68.7,16.13,0.00,0.00
15min,AgWx,beryljct,423,02AUG2018:22:30:00,70.1,13.08,70.0,68.9,70.1,70.6,68.9,64,67,62,1.599,57.2,58.0,56.6,14.56,15.3,243,16,24.1,0.00072,0.00087,74.8,76.2,16,0,0,69.7,16.14,0.00,0.00
15min,AgWx,beryljct,423,02AUG2018:22:45:00,69.3,13.06,67.4,66.7,67.6,68.9,66.6,71,75,67,1.681,58.0,58.7,57.3,16.95,15.0,246,11,20.2,0.00054,0.00065,74.6,76.1,17,0,0,66.9,16.14,0.00,0.00
15min,AgWx,beryljct,423,02AUG2018:23:00:00,68.0,13.05,65.5,64.7,65.7,66.7,64.7,79,82,75,1.700,59.0,59.3,58.6,14.71,14.2,255,8.9,20.0,0.00037,0.00045,74.4,76.0,17,0,12,64.6,16.14,0.00,0.00
15min,AgWx,beryljct,423,02AUG2018:23:15:00,66.8,13.02,64.0,63.4,64.2,64.7,63.4,84,88,82,1.752,59.1,59.8,58.8,11.42,7.4,203,57,11.4,0.00021,0.00027,74.2,76.0,17,0,94,67.8,16.16,0.02,0.02
15min,AgWx,beryljct,423,02AUG2018:23:30:00,65.7,13.05,62.9,62.4,62.9,63.4,62.4,89,91,88,1.743,59.8,59.9,59.6,13.44,10.2,142,12,14.7,0.00015,0.00019,74.0,75.9,17,0,14,63.1,16.17,0.01,0.01
15min,AgWx,beryljct,423,02AUG2018:23:45:00,64.9,13.05,62.1,61.7,62.1,62.5,61.7,91,91,90,1.709,59.4,59.7,59.1,5.437,10.1,176,11,15.4,0.00013,0.00016,73.8,75.8,17,0,0,61.4,16.17,0.00,0.00
15min,AgWx,beryljct,423,03AUG2018:00:00:00,64.2,13.04,61.6,61.5,61.6,61.7,61.4,92,92,91,1.706,59.1,59.2,59.0,6.445,5.6,174,14,7.7,0.00009,0.00012,73.6,75.3,16,0,0,60.9,16.17,0.00,0.00
15min,AgWx,beryljct,423,03AUG2018:00:15:00,63.8,13.03,61.5,61.4,61.4,61.5,61.3,91,92,91,1.687,58.8,59.1,58.7,8.07,6.8,184,9.7,8.8,0.00010,0.00013,73.4,75.7,17,0,0,60.6,16.17,0.00,0.00
15min,AgWx,beryljct,423,03AUG2018:00:30:00,63.3,13.02,61.8,61.7,61.6,61.8,61.3,90,91,89,1.673,58.6,58.7,58.5,6.423,6.5,191,6.9,8.6,0.00012,0.00015,73.2,75.6,17,0,0,60.3,16.17,0.00,0.00
15min,AgWx,beryljct,423,03AUG2018:00:45:00,63.1,13.01,62.1,62.3,61.9,62.3,61.6,88,90,86,1.657,58.4,58.6,58.2,4.998,6.7,192,6.2,9.3,0.00014,0.00018,73.0,75.0,17,0,0,60.4,16.17,0.00,0.00
15min,AgWx,bigpiney,439,02AUG2018:01:00:00,56.3,12.8,49.4,49.3,49.0,49.4,48.3,87,89,85,1.026,45.2,45.9,44.2,3.464,2.8,31,77,6.9,0.00001,0.00002,57.8,55.5,51,0,100,0.0,.,0.00,0.00
15min,AgWx,bigpiney,439,02AUG2018:01:15:00,55.6,12.79,49.6,48.8,48.8,49.6,48.3,86,88,84,1.032,44.9,45.5,44.5,1.491,1.8,225,40,3.6,-0.00002,-0.00002,57.8,55.5,51,0,100,0.0,.,0.00,0.00
15min,AgWx,bigpiney,439,02AUG2018:01:30:00,54.9,12.78,49.3,48.8,48.9,49.4,48.4,86,88,85,1.010,45.0,45.5,44.5,2.828,2.3,286,30,3.1,-0.00000,0.00000,57.7,55.5,51,0,100,0.0,.,0.00,0.00
15min,AgWx,bigpiney,439,02AUG2018:01:45:00,54.3,12.77,49.3,48.8,48.6,48.9,48.3,86,87,84,1.011,44.6,45.1,43.9,1.578,2.3,309,18,3.9,-0.00000,0.00001,57.7,55.6,51,0,100,0.0,.,0.00,0.00
15min,AgWx,bigpiney,439,02AUG2018:02:00:00,53.9,12.76,48.0,47.9,48.5,49.3,47.7,86,89,85,1.001,44.6,44.9,43.8,1.688,2.3,270,16,3.0,-0.00000,0.00000,57.7,55.6,51,0,100,0.0,.,0.00,0.00
15min,AgWx,bigpiney,439,02AUG2018:02:15:00,53.4,12.75,46.2,46.2,46.5,47.8,45.7,89,91,87,0.966,43.5,44.5,42.7,4.143,2.6,239,8.0,4.1,-0.00001,-0.00001,57.6,55.5,51,0,100,0.0,.,0.00,0.00
15min,AgWx,bigpiney,439,02AUG2018:02:30:00,52.7,12.74,47.1,46.9,46.4,47.1,45.6,90,91,89,0.970,43.6,44.3,42.8,2.017,3.5,236,11,5.8,0.00000,0.00001,57.5,55.5,51,0,100,0.0,.,0.00,0.00
15min,AgWx,bigpiney,439,02AUG2018:02:45:00,52.3,12.72,44.4,44.4,45.6,47.0,44.4,89,90,88,0.899,42.7,44.0,41.7,2.236,2.5,231,7.0,3.3,-0.00001,-0.00001,57.5,55.6,51,0,100,0.0,.,0.00,0.00
15min,AgWx,bigpiney,439,02AUG2018:03:00:00,51.8,12.72,45.8,45.6,45.0,45.7,44.4,91,92,90,0.944,42.6,43.3,41.8,3.376,2.6,244,4.9,3.8,-0.00002,-0.00002,57.4,55.6,51,0,100,0.0,.,0.00,0.00
15min,AgWx,bigpiney,439,02AUG2018:03:15:00,51.3,12.71,45.7,45.6,45.5,46.0,44.7,90,92,89,0.932,42.8,43.5,42.0,2.039,3.8,227,7.8,5.2,0.00001,0.00001,57.4,55.5,51,0,100,0.0,.,0.00,0.00
15min,AgWx,bigpiney,439,02AUG2018:03:30:00,50.9,12.69,45.8,45.3,45.3,45.6,45.1,90,91,90,0.935,42.6,42.8,42.3,3.025,3.0,226,12,3.9,-0.00001,-0.00000,57.3,55.5,51,0,100,0.0,.,0.00,0.00
15min,AgWx,bigpiney,439,02AUG2018:03:45:00,50.7,12.7,49.5,49.3,47.3,49.3,45.4,86,91,79,0.941,43.2,43.7,42.9,3.376,3.3,289,15,4.7,0.00002,0.00004,57.2,55.5,51,0,100,0.0,.,0.00,0.00
15min,AgWx,bigpiney,439,02AUG2018:04:00:00,50.7,12.67,48.1,48.3,49.0,49.6,47.9,79,81,77,0.930,42.7,43.0,41.9,1.03,2.0,264,40,4.5,0.00002,0.00003,57.2,55.5,51,0,100,0.0,.,0.00,0.00
15min,AgWx,bigpiney,439,02AUG2018:04:15:00,50.7,12.67,47.9,48.0,49.3,49.8,48.0,77,80,76,0.899,42.6,42.9,41.4,0.132,1.6,275,18,3.6,0.00000,0.00002,57.1,55.6,51,0,100,0.0,.,0.00,0.00
15min,AgWx,bigpiney,439,02AUG2018:04:30:00,50.7,12.66,45.9,45.7,46.9,48.8,45.6,82,86,78,0.884,41.7,43.2,40.8,2.74,2.6,178,37,3.7,0.00002,0.00004,57.0,55.5,51,0,100,0.0,.,0.00,0.00
15min,AgWx,bigpiney,439,02AUG2018:04:45:00,50.4,12.65,45.0,44.8,45.3,45.8,44.6,86,88,84,0.874,41.2,41.6,40.6,2.609,1.7,231,41,3.2,-0.00002,-0.00002,56.9,55.5,51,0,100,0.0,.,0.00,0.00
15min,AgWx,bigpiney,439,02AUG2018:05:00:00,50.0,12.65,43.5,43.6,44.4,45.3,43.6,87,89,86,0.855,40.8,41.9,40.4,0,1.0,220,9.9,3.9,-0.00004,-0.00005,56.9,55.4,51,0,100,0.0,.,0.00,0.00
15min,AgWx,bigpiney,439,02AUG2018:05:15:00,49.4,12.63,46.4,44.7,43.7,44.7,42.8,89,91,86,0.907,40.6,42.0,39.4,1.535,1.0,212,20,2.1,-0.00004,-0.00006,56.8,55.5,51,0,100,0.0,.,0.00,0.00
15min,AgWx,bigpiney,439,02AUG2018:05:30:00,48.9,12.62,46.2,46.0,46.4,47.1,44.8,82,90,79,0.858,41.3,42.2,40.5,3.113,1.4,348,44,3.3,-0.00002,-0.00002,56.7,55.4,51,0,100,0.0,.,0.00,0.00
15min,AgWx,bigpiney,439,02AUG2018:05:45:00,48.5,12.6,44.6,44.7,45.4,46.0,44.7,84,86,81,0.866,40.8,41.0,40.5,1.973,1.7,316,16,3.3,-0.00001,-0.00001,56.6,55.4,51,0,100,0.0,.,0.00,0.00
15min,AgWx,bigpiney,439,02AUG2018:06:00:00,48.3,12.61,43.3,43.1,44.0,44.7,43.1,88,89,86,0.842,40.6,40.9,40.1,1.929,1.9,267,12,3.2,-0.00002,-0.00002,56.6,55.4,51,0,100,0.0,.,0.00,0.00
15min,AgWx,bigpiney,439,02AUG2018:06:15:00,48.0,12.6,42.4,42.3,42.4,43.1,41.8,89,91,88,0.830,39.5,40.1,38.6,3.025,4.2,230,16,5.8,0.00002,0.00003,56.5,55.4,51,6,100,0.0,.,0.00,0.00
15min,AgWx,bigpiney,439,02AUG2018:06:30:00,47.8,12.63,44.2,43.8,43.5,43.9,42.3,90,92,90,0.875,40.9,41.3,39.7,0.263,2.4,253,12,3.6,-0.00035,-0.00034,56.4,55.3,51,17,100,0.0,.,0.00,0.00
15min,AgWx,bigpiney,439,02AUG2018:06:45:00,47.7,12.66,44.8,44.4,44.4,44.8,43.8,90,90,89,0.893,41.5,41.9,41.1,3.179,2.2,238,14,3.7,-0.00018,-0.00016,56.3,55.3,51,51,100,0.0,.,0.00,0.00
15min,AgWx,bigpiney,439,02AUG2018:07:00:00,48.1,12.72,47.4,47.3,46.3,47.5,44.4,88,91,86,0.961,43.0,43.7,41.6,1.951,3.0,229,15,5.2,0.00000,0.00005,56.2,55.3,51,80,100,0.0,.,0.00,0.00
15min,AgWx,bigpiney,439,02AUG2018:07:15:00,48.9,12.74,48.1,47.6,47.0,47.6,46.6,88,89,87,0.997,43.8,44.5,43.3,2.039,1.9,210,27,2.6,0.00010,0.00014,56.1,55.3,51,100,100,0.0,.,0.00,0.00
15min,AgWx,bigpiney,439,02AUG2018:07:30:00,49.8,12.81,49.3,49.0,48.4,49.1,47.6,89,90,89,1.049,45.4,46.0,44.5,1.973,2.2,229,13,3.7,0.00032,0.00038,56.1,55.2,51,107,100,0.0,.,0.00,0.00
15min,AgWx,bigpiney,439,02AUG2018:07:45:00,50.7,12.86,49.8,49.6,49.2,49.6,48.9,89,90,89,1.080,46.1,46.6,45.8,0.658,1.3,222,14,2.8,0.00046,0.00051,56.0,55.2,51,117,100,0.0,.,0.00,0.00
15min,AgWx,bigpiney,439,02AUG2018:08:00:00,51.5,12.95,51.8,51.2,50.3,51.3,49.5,89,90,88,1.134,47.3,48.1,46.5,1.359,1.2,212,8.4,2.1,0.00064,0.00070,55.9,55.2,51,147,100,0.0,.,0.00,0.00
15min,AgWx,bigpiney,439,02AUG2018:08:15:00,52.6,13.29,54.9,54.9,53.0,55.0,51.3,86,89,82,1.209,49.0,49.9,48.0,0.767,0.6,246,7.6,1.5,0.00106,0.00115,55.9,55.2,51,237,100,0.0,.,0.00,0.00
15min,AgWx,bigpiney,439,02AUG2018:08:30:00,54.2,13.27,56.3,55.8,55.4,55.8,54.8,82,84,80,1.228,50.1,50.8,49.2,0,0.5,186,27,2.1,0.00107,0.00116,55.8,55.2,51,206,11,0.0,.,0.00,0.00